CW4621 Weather Reports


Display with metric or nautical units.
time (UTC)temp
F
wind
direction
speed
MPH
gust
MPH
rain 1hr
in
rain 24hr
in
rain mn
in
humidity
%
barometer
mb
20260503032604 53 188 1.0 3.0 0.00 0.00 0.00 44 1011.2
20260503032104 53 287 0.0 3.0 0.00 0.00 0.00 44 1011.1
20260503031104 53 356 1.0 7.0 0.00 0.00 0.00 43 1011.1
20260503030605 53 311 2.0 8.0 0.00 0.00 0.00 43 1011.1
20260503030105 53 305 1.0 3.0 0.00 0.00 0.00 42 1011.1
20260503025605 54 351 0.0 3.0 0.00 0.00 0.00 42 1011.2
20260503025105 54 324 1.0 3.0 0.00 0.00 0.00 42 1011.0
20260503024605 54 124 1.0 5.0 0.00 0.00 0.00 42 1011.1
20260503024105 54 345 2.0 8.0 0.00 0.00 0.00 41 1011.1
20260503023605 54 332 2.0 6.0 0.00 0.00 0.00 41 1011.1
20260503022105 54 306 2.0 7.0 0.00 0.00 0.00 41 1011.1
20260503021605 54 291 1.0 5.0 0.00 0.00 0.00 41 1011.1
20260503021104 55 18 1.0 3.0 0.00 0.00 0.00 40 1011.1
20260503020605 55 264 1.0 3.0 0.00 0.00 0.00 40 1011.2
20260503015605 55 349 1.0 3.0 0.00 0.00 0.00 40 1011.1
20260503015105 55 312 2.0 6.0 0.00 0.00 0.00 40 1011.1
20260503014605 55 333 1.0 5.0 0.00 0.00 0.00 39 1011.0
20260503013605 55 237 1.0 6.0 0.00 0.00 0.00 39 1011.1
20260503013105 55 337 1.0 9.0 0.00 0.00 0.00 38 1011.0
20260503012604 55 321 2.0 7.0 0.00 0.00 0.00 38 1010.9
20260503012104 55 278 1.0 7.0 0.00 0.00 0.00 38 1010.9
20260503011605 55 330 1.0 5.0 0.00 0.00 0.00 39 1010.9
20260503011105 55 276 1.0 5.0 0.00 0.00 0.00 39 1010.8
20260503010604 55 314 1.0 3.0 0.00 0.00 0.00 38 1010.7
20260503010105 55 309 2.0 5.0 0.00 0.00 0.00 38 1010.6
20260503005605 55 313 1.0 3.0 0.00 0.00 0.00 39 1010.7
20260503004605 55 350 1.0 2.0 0.00 0.00 0.00 39 1010.6
20260503004104 56 325 1.0 3.0 0.00 0.00 0.00 38 1010.5
20260503003606 56 322 1.0 3.0 0.00 0.00 0.00 38 1010.4
20260503003105 56 246 0.0 3.0 0.00 0.00 0.00 38 1010.2
20260503002605 56 298 1.0 3.0 0.00 0.00 0.00 39 1010.2
20260503002105 56 241 1.0 5.0 0.00 0.00 0.00 39 1010.2
20260503001605 56 348 0.0 1.0 0.00 0.00 0.00 39 1010.2
20260503001105 56 354 0.0 2.0 0.00 0.00 0.00 39 1010.2
20260503000604 57 295 0.0 3.0 0.00 0.00 0.00 38 1010.3
20260503000105 57 346 0.0 3.0 0.00 0.00 0.00 38 1010.1
20260502235605 57 165 0.0 3.0 0.00 0.00 0.00 38 1010.1
20260502235105 57 281 1.0 2.0 0.00 0.00 0.00 38 1010.1
20260502234605 58 303 1.0 3.0 0.00 0.00 0.00 37 1010.1
20260502234105 58 39 1.0 3.0 0.00 0.00 0.00 37 1010.0
20260502233605 58 246 1.0 3.0 0.00 0.00 0.00 38 1009.9
20260502232105 58 335 1.0 3.0 0.00 0.00 0.00 37 1009.8
20260502231605 59 307 0.0 2.0 0.00 0.00 0.00 37 1009.9
20260502231105 59 41 0.0 2.0 0.00 0.00 0.00 37 1010.0
20260502230105 59 239 0.0 6.0 0.00 0.00 0.00 37 1009.9
20260502225605 59 330 2.0 5.0 0.00 0.00 0.00 36 1010.0
20260502225105 60 238 1.0 3.0 0.00 0.00 0.00 37 1010.0
20260502224605 60 333 1.0 3.0 0.00 0.00 0.00 36 1009.9
20260502224104 59 302 0.0 3.0 0.00 0.00 0.00 37 1009.9
20260502223105 59 259 0.0 3.0 0.00 0.00 0.00 37 1009.8
20260502222105 60 85 0.0 1.0 0.00 0.00 0.00 38 1009.8
20260502221604 60 212 0.0 2.0 0.00 0.00 0.00 37 1009.8
20260502221104 60 315 1.0 3.0 0.00 0.00 0.00 36 1009.7
20260502220105 61 165 2.0 3.0 0.00 0.00 0.00 36 1009.8
20260502215605 60 345 0.0 9.0 0.00 0.00 0.00 36 1009.8
20260502215105 60 197 1.0 3.0 0.00 0.00 0.00 37 1009.8
20260502214605 60 300 1.0 5.0 0.00 0.00 0.00 36 1009.8
20260502214105 60 303 1.0 3.0 0.00 0.00 0.00 36 1009.8
20260502213605 61 278 1.0 3.0 0.00 0.00 0.00 36 1009.7
20260502213105 61 307 0.0 3.0 0.00 0.00 0.00 37 1009.8
20260502212604 61 336 1.0 2.0 0.00 0.00 0.00 36 1009.7
20260502212105 61 1 1.0 2.0 0.00 0.00 0.00 36 1009.7
20260502211604 61 331 2.0 6.0 0.00 0.00 0.00 35 1009.6
20260502211105 62 184 0.0 3.0 0.00 0.00 0.00 36 1009.6
20260502210605 62 277 2.0 6.0 0.00 0.00 0.00 36 1009.6
20260502210105 62 76 1.0 3.0 0.00 0.00 0.00 36 1009.4
20260502205605 62 278 2.0 7.0 0.00 0.00 0.00 35 1009.4
20260502205105 61 169 2.0 6.0 0.00 0.00 0.00 36 1009.4
20260502204605 61 152 1.0 3.0 0.00 0.00 0.00 37 1009.4
20260502204104 61 178 1.0 6.0 0.00 0.00 0.00 35 1009.4
20260502203604 61 297 2.0 6.0 0.00 0.00 0.00 37 1009.3
20260502203105 62 36 1.0 3.0 0.00 0.00 0.00 36 1009.4
20260502202605 62 23 2.0 6.0 0.00 0.00 0.00 36 1009.5
20260502202105 62 278 1.0 3.0 0.00 0.00 0.00 36 1009.5
20260502201605 62 53 1.0 3.0 0.00 0.00 0.00 37 1009.5
20260502201104 62 323 1.0 3.0 0.00 0.00 0.00 36 1009.6
20260502200604 62 343 2.0 3.0 0.00 0.00 0.00 34 1009.6
20260502200105 62 327 2.0 7.0 0.00 0.00 0.00 34 1009.7
20260502195605 63 323 2.0 6.0 0.00 0.00 0.00 35 1009.8
20260502195105 63 205 2.0 6.0 0.00 0.00 0.00 35 1009.8
20260502194104 63 301 2.0 7.0 0.00 0.00 0.00 36 1010.0
20260502193604 63 325 1.0 5.0 0.00 0.00 0.00 37 1010.0
20260502193104 63 323 2.0 3.0 0.00 0.00 0.00 34 1010.1
20260502192604 62 124 1.0 5.0 0.00 0.00 0.00 38 1010.2
20260502192105 62 311 2.0 6.0 0.00 0.00 0.00 36 1010.3
20260502191604 62 349 1.0 3.0 0.00 0.00 0.00 37 1010.4
20260502190605 61 311 2.0 6.0 0.00 0.00 0.00 39 1010.5
20260502190104 60 325 2.0 7.0 0.00 0.00 0.00 39 1010.7
20260502185605 59 122 1.0 3.0 0.00 0.00 0.00 39 1010.7
20260502184604 61 324 0.0 3.0 0.00 0.00 0.00 39 1010.9
20260502184104 61 270 1.0 3.0 0.00 0.00 0.00 39 1011.1
20260502183604 61 322 1.0 2.0 0.00 0.00 0.00 39 1011.0
20260502183104 61 304 2.0 6.0 0.00 0.00 0.00 41 1011.1
20260502182605 61 329 3.0 7.0 0.00 0.00 0.00 40 1011.2
20260502182105 61 348 2.0 5.0 0.00 0.00 0.00 41 1011.2
20260502181105 60 336 0.0 2.0 0.00 0.00 0.00 44 1011.3
20260502180604 59 16 2.0 5.0 0.00 0.00 0.00 43 1011.3
20260502180104 59 302 1.0 6.0 0.00 0.00 0.00 44 1011.3
20260502164105 58 331 2.0 3.0 0.00 0.00 0.00 51 1011.7
20260502163605 58 334 1.0 3.0 0.00 0.00 0.00 53 1011.8
20260502163105 57 323 2.0 7.0 0.00 0.00 0.00 53 1012.0
20260502162604 57 31 1.0 3.0 0.00 0.00 0.00 55 1012.1
20260502162104 57 59 2.0 5.0 0.00 0.00 0.00 55 1012.0
20260502161105 57 199 1.0 2.0 0.00 0.00 0.00 56 1012.3
20260502160605 57 349 1.0 3.0 0.00 0.00 0.00 56 1012.4
20260502160105 57 338 1.0 5.0 0.00 0.00 0.00 55 1012.4
20260502151605 56 36 0.0 3.0 0.00 0.00 0.00 58 1011.9
20260502151105 56 57 1.0 3.0 0.00 0.00 0.00 57 1012.0
20260502150605 56 273 1.0 3.0 0.00 0.00 0.00 57 1012.0
20260502150105 56 319 1.0 3.0 0.00 0.00 0.00 57 1011.9
20260502140105 55 311 0.0 3.0 0.00 0.00 0.00 65 1012.1
20260502130105 54 106 1.0 3.0 0.00 0.00 0.00 66 1012.3
20260502123604 54 282 2.0 3.0 0.00 0.00 0.00 66 1012.1
20260502123105 54 318 1.0 3.0 0.00 0.00 0.00 67 1012.2
20260502122605 54 358 1.0 5.0 0.00 0.00 0.00 68 1012.2
20260502122104 53 228 1.0 2.0 0.00 0.00 0.00 68 1012.2
20260502121105 53 306 0.0 2.0 0.00 0.00 0.00 70 1012.1
20260502120604 53 331 0.0 2.0 0.00 0.00 0.00 70 1012.1
20260502120105 52 204 0.0 1.0 0.00 0.00 0.00 71 1012.1
20260502115605 52 319 0.0 1.0 0.00 0.00 0.00 71 1012.1
20260502115104 52 219 0.0 1.0 0.00 0.00 0.00 72 1012.0
20260502114106 51 182 1.0 2.0 0.00 0.00 0.00 72 1011.9
20260502113605 51 148 0.0 1.0 0.00 0.00 0.00 73 1011.9
20260502113105 50 148 0.0 0.0 0.00 0.00 0.00 74 1011.9
20260502112605 50 148 0.0 1.0 0.00 0.00 0.00 74 1012.0
20260502112104 49 149 0.0 1.0 0.00 0.00 0.00 76 1011.9
20260502111604 49 229 0.0 0.0 0.00 0.00 0.00 76 1011.9
20260502111104 48 229 0.0 1.0 0.00 0.00 0.00 76 1011.9
20260502110105 48 229 0.0 1.0 0.00 0.00 0.00 77 1011.8
20260502105604 47 229 0.0 0.0 0.00 0.00 0.00 77 1011.7
20260502105105 47 229 0.0 0.0 0.00 0.00 0.00 76 1011.7
20260502104605 47 230 0.0 0.0 0.00 0.00 0.00 76 1011.7
20260502104105 47 230 0.0 0.0 0.00 0.00 0.00 76 1011.6
20260502103604 47 230 0.0 0.0 0.00 0.00 0.00 76 1011.5
20260502103105 47 230 0.0 0.0 0.00 0.00 0.00 76 1011.5
20260502102605 47 230 0.0 0.0 0.00 0.00 0.00 76 1011.4
20260502101105 47 230 0.0 1.0 0.00 0.00 0.00 76 1011.3
20260502100606 47 144 0.0 0.0 0.00 0.00 0.00 76 1011.2
20260502100105 47 139 0.0 0.0 0.00 0.00 0.00 76 1011.2
20260502091105 49 139 0.0 0.0 0.00 0.00 0.00 72 1011.1
20260502090605 50 139 0.0 0.0 0.00 0.00 0.00 72 1011.1
20260502090104 50 139 0.0 0.0 0.00 0.00 0.00 72 1011.1
20260502080104 51 63 0.0 1.0 0.00 0.00 0.00 72 1010.9
20260502071105 51 127 0.0 0.0 0.00 0.00 0.00 76 1011.1
20260502070605 51 142 0.0 2.0 0.00 0.00 0.00 76 1011.2
20260502065604 51 140 0.0 2.0 0.00 0.00 0.00 76 1011.2
20260502065104 51 80 0.0 2.0 0.00 0.00 0.00 76 1011.2
20260502064605 51 134 0.0 3.0 0.00 0.00 0.00 76 1011.4
20260502064105 51 176 0.0 2.0 0.00 0.00 0.00 76 1011.4
20260502063605 51 157 0.0 1.0 0.00 0.00 0.00 75 1011.5
20260502063104 51 130 0.0 1.0 0.00 0.00 0.00 75 1011.4
20260502062604 52 173 0.0 5.0 0.00 0.00 0.00 75 1011.4
20260502062104 52 169 0.0 3.0 0.00 0.00 0.00 75 1011.4
20260502061105 52 79 1.0 3.0 0.00 0.00 0.00 75 1011.3
20260502060605 52 142 0.0 2.0 0.00 0.00 0.00 75 1011.5
20260502060104 52 110 0.0 2.0 0.00 0.00 0.00 75 1011.8
20260502055604 52 127 0.0 2.0 0.00 0.00 0.00 75 1011.6
20260502055104 52 235 0.0 3.0 0.00 0.00 0.00 75 1011.6
20260502054104 52 109 1.0 2.0 0.00 0.00 0.00 75 1011.6
20260502053104 52 253 0.0 3.0 0.00 0.00 0.00 75 1011.8
20260502052604 52 162 0.0 2.0 0.00 0.00 0.00 75 1011.8
20260502052104 52 203 0.0 1.0 0.00 0.00 0.00 75 1011.8
20260502051604 52 102 1.0 3.0 0.00 0.00 0.00 75 1011.7
20260502051104 52 132 1.0 3.0 0.00 0.00 0.00 74 1011.7
20260502050604 52 125 2.0 3.0 0.00 0.00 0.00 75 1011.7
20260502050105 52 132 0.0 3.0 0.00 0.00 0.00 74 1011.7
20260502045605 52 132 0.0 2.0 0.00 0.00 0.00 74 1011.7
20260502045105 52 134 1.0 5.0 0.00 0.00 0.00 74 1011.8
20260502043105 52 108 0.0 2.0 0.00 0.00 0.00 73 1011.8
20260502042604 52 112 1.0 3.0 0.00 0.00 0.00 72 1011.8
20260502042104 52 118 1.0 1.0 0.00 0.00 0.00 72 1011.8
20260502041105 52 133 3.0 5.0 0.00 0.00 0.00 71 1011.7
20260502040104 52 120 1.0 3.0 0.00 0.00 0.00 71 1011.6
20260502035104 52 123 1.0 6.0 0.00 0.00 0.00 70 1011.6
20260502034604 52 128 0.0 2.0 0.00 0.00 0.00 69 1011.6
20260502033104 52 133 1.0 3.0 0.00 0.00 0.00 67 1011.1